Springfield, CO

6:54 PM MST on January 21, 2017 (GMT -0700)
Comanche National Grassland

Weather History for KSPD - January, 2014

Change the Weather History Date:

Sunday, January 12, 2014

  Actual Average Record
Temperature  
Mean Temperature 45 °F -  
Max Temperature 66 °F 46 °F 66 °F (2014)
Min Temperature 23 °F 18 °F -1 °F (2011)
Degree Days  
Heating Degree Days 20 33  
Month to date heating degree days 399 401  
Since 1 July heating degree days 2523 2559  
Cooling Degree Days 0 0  
Month to date cooling degree days 0 0  
Year to date cooling degree days 0 0  
Moisture  
Dew Point 19 °F    
Average Humidity 43    
Maximum Humidity 75    
Minimum Humidity 10    
Precipitation  
Precipitation 0.00 in 0.01 in 0.11 in (2007)
Month to date precipitation 0.16 0.09  
Year to date precipitation 0.16 0.09  
Sea Level Pressure  
Sea Level Pressure 29.65 in    
Wind  
Wind Speed 15 mph (WNW)    
Max Wind Speed 41 mph    
Max Gust Speed 53 mph    
T = Trace of Precipitation, MM = Missing Value Source: NWS Daily Summary

Daily Weather History Graph

Daily Weather History Graph

Search for Another Location

Airport or City:

Trip Planner

Search our weather history database for the weather conditions in past years. The results will help you decide how hot, cold, wet, or windy it might be!

Date:

Astronomy

Jan. 12, 2014 Rise Set
Actual Time 7:04 AM MST 4:53 PM MST
Civil Twilight 6:35 AM MST 5:22 PM MST
Nautical Twilight 6:03 AM MST 5:54 PM MST
Astronomical Twilight 5:32 AM MST 6:25 PM MST
Moon 2:22 PM MST (1/12) 4:05 AM MST (1/12)
Length of Visible Light 10h 46m
Length of Day
9h 49m
Waxing Gibbous, 90% of the Moon is Illuminated
Jan 12
Waxing Gibbous
Jan 15
Full
Jan 23
Last Quarter
Jan 30
New
Feb 6
First Quarter

Hourly Weather History & Observations

Time (MST) Temp. Windchill Dew Point Humidity Pressure Visibility Wind Dir Wind Speed Gust Speed Precip Events Conditions
12:56 AM 43.0 °F 35.7 °F 18.0 °F 37% 29.59 in - West 15.0 mph - N/A   Unknown
1:56 AM 41.0 °F 34.7 °F 18.0 °F 40% 29.57 in - WSW 10.4 mph - N/A   Unknown
2:56 AM 43.0 °F 36.0 °F 18.0 °F 37% 29.55 in - WSW 13.8 mph - N/A   Unknown
3:56 AM 45.0 °F 38.5 °F 17.1 °F 33% 29.52 in - WSW 13.8 mph - N/A   Unknown
4:56 AM 48.0 °F - 17.1 °F 29% 29.52 in - WSW 12.7 mph - N/A   Unknown
5:56 AM 42.1 °F 37.1 °F 18.0 °F 38% 29.55 in - West 8.1 mph - N/A   Unknown
6:56 AM 43.0 °F 37.2 °F 18.0 °F 37% 29.57 in - West 10.4 mph - N/A   Unknown
7:56 AM 45.0 °F 39.3 °F 19.0 °F 36% 29.55 in - WSW 11.5 mph - N/A   Unknown
8:56 AM 51.1 °F - 19.0 °F 28% 29.55 in - West 13.8 mph - N/A   Unknown
9:56 AM 57.0 °F - 19.0 °F 23% 29.54 in - West 16.1 mph - N/A   Unknown
10:56 AM 62.1 °F - 19.0 °F 19% 29.51 in - WNW 19.6 mph 27.6 mph N/A   Unknown
11:56 AM 66.0 °F - 17.1 °F 15% 29.48 in - West 18.4 mph 24.2 mph N/A   Unknown
12:56 PM 66.0 °F - 16.0 °F 15% 29.45 in - West 16.1 mph 21.9 mph N/A   Unknown
1:56 PM 66.0 °F - 9.0 °F 11% 29.47 in - West 26.5 mph 36.8 mph N/A   Unknown
2:36 PM 53.1 °F - 19.0 °F 26% 29.64 in - North 31.1 mph 52.9 mph N/A   Unknown
2:56 PM 52.0 °F - 19.0 °F 27% 29.62 in - North 31.1 mph 42.6 mph N/A   Unknown
3:56 PM 46.9 °F - 26.1 °F 44% 29.67 in - NNW 19.6 mph - N/A   Unknown
4:56 PM 39.9 °F 30.2 °F 28.0 °F 63% 29.73 in - North 20.7 mph - N/A   Unknown
5:56 PM 37.0 °F 33.3 °F 27.0 °F 67% 29.80 in - North 4.6 mph - N/A   Unknown
6:56 PM 35.1 °F 25.9 °F 28.0 °F 76% 29.84 in - NNW 13.8 mph - N/A   Unknown
7:56 PM 33.1 °F 23.4 °F 24.1 °F 70% 29.86 in - NNW 13.8 mph - N/A   Unknown
8:56 PM 32.0 °F 22.1 °F 19.9 °F 61% 29.87 in - NNW 13.8 mph - N/A   Unknown
9:56 PM 28.0 °F 18.6 °F 19.0 °F 69% 29.89 in - NW 10.4 mph - N/A   Unknown
10:56 PM 28.0 °F 18.1 °F 14.0 °F 56% 29.89 in - NW 11.5 mph - N/A   Unknown
11:56 PM 24.1 °F 13.7 °F 10.9 °F 57% 29.90 in - WNW 10.4 mph - N/A   Unknown